Location: Azenweiler
(47.8027°N, 9.4096°E)
Time: 02:25:37
(UTC+00:00)

Cosmos 1626 Rocket - Pass Details

Date: 19 March 2026
Orbit: 596 x 624 km, 82.5° (Epoch: 13 April)

Event Time Altitude Azimuth Distance (km) Brightness Sun altitude
Rises 04:05:46 0° 345° (NNW) 2,893 7.0 -14.4°
Reaches altitude 10° 04:08:05 10° 339° (NNW) 1,978 6.1 -14.1°
Maximum altitude 04:12:14 44° 267° (W) 849 3.8 -13.4°
Drops below altitude 10° 04:16:19 10° 196° (SSW) 1,945 5.8 -12.7°
Sets 04:18:34 0° 189° (S) 2,839 6.7 -12.3°
